"read_dt","SO2 (ppb)","flags","PMT voltage (V)","lamp voltage (V)","lamp intensity (Hz)","internal temp (C)","react chamber temp (C)","sample flow (l/min)","pres (mmHg)","SO2 bkg (ppb)","SO2 coefficient"
2016-10-21 00:00:00,1448E-3,5C000000,-0724,0829,12303,027.8,045.4,0.454,743.7,01.18,0.508
2016-10-21 00:01:00,1529E-3,5C000000,-0724,0828,12301,027.8,045.4,0.455,743.8,01.18,0.508
2016-10-21 00:02:00,1642E-3,5C000000,-0724,0828,12144,027.8,045.5,0.454,743.8,01.18,0.508
2016-10-21 00:03:00,1518E-3,5C000000,-0724,0829,12124,027.8,045.5,0.454,743.8,01.18,0.508
2016-10-21 00:04:00,1511E-3,5C000000,-0724,0828,12192,027.8,045.5,0.454,743.7,01.18,0.508
2016-10-21 00:05:00,1627E-3,5C000000,-0724,0829,12116,027.8,045.4,0.454,743.6,01.18,0.508
2016-10-21 00:06:00,1677E-3,5C000000,-0724,0830,12089,027.8,045.5,0.455,743.8,01.18,0.508
2016-10-21 00:07:00,1590E-3,5C000000,-0724,0829,12138,027.8,045.5,0.454,743.7,01.18,0.508
2016-10-21 00:08:00,1534E-3,5C000000,-0724,0829,12103,027.8,045.5,0.454,743.8,01.18,0.508
2016-10-21 00:09:00,1559E-3,5C000000,-0724,0828,12246,027.8,045.4,0.454,743.7,01.18,0.508
2016-10-21 00:10:00,1644E-3,5C000000,-0724,0829,12129,027.8,045.5,0.454,743.6,01.18,0.508
2016-10-21 00:11:00,1517E-3,5C000000,-0724,0829,12103,027.8,045.5,0.455,743.7,01.18,0.508
2016-10-21 00:12:00,1569E-3,5C000000,-0724,0830,12181,027.8,045.5,0.454,743.7,01.18,0.508
2016-10-21 00:13:00,1481E-3,5C000000,-0724,0829,12196,027.8,045.4,0.454,743.6,01.18,0.508
2016-10-21 00:14:00,1563E-3,5C000000,-0724,0829,12206,027.8,045.4,0.454,743.6,01.18,0.508
2016-10-21 00:15:00,1568E-3,5C000000,-0724,0828,12186,027.8,045.5,0.454,743.6,01.18,0.508
2016-10-21 00:16:00,1635E-3,5C000000,-0724,0829,12206,027.8,045.4,0.455,743.7,01.18,0.508
2016-10-21 00:17:00,1718E-3,5C000000,-0724,0828,12259,027.8,045.5,0.454,743.6,01.18,0.508
2016-10-21 00:18:00,1545E-3,5C000000,-0724,0829,12104,027.8,045.5,0.455,743.7,01.18,0.508
2016-10-21 00:19:00,1665E-3,5C000000,-0724,0829,12184,027.8,045.4,0.454,743.7,01.18,0.508
2016-10-21 00:20:00,1615E-3,5C000000,-0724,0828,12179,027.8,045.4,0.454,743.8,01.18,0.508
2016-10-21 00:21:00,1539E-3,5C000000,-0724,0828,12249,027.8,045.4,0.454,743.7,01.18,0.508
2016-10-21 00:22:00,1604E-3,5C000000,-0724,0829,12127,027.8,045.4,0.454,743.7,01.18,0.508
2016-10-21 00:23:00,1646E-3,5C000000,-0724,0828,12215,027.8,045.4,0.455,743.8,01.18,0.508
2016-10-21 00:24:00,1679E-3,5C000000,-0724,0829,12361,027.8,045.4,0.454,743.8,01.18,0.508
2016-10-21 00:25:00,1562E-3,5C000000,-0724,0829,12201,027.8,045.4,0.454,743.8,01.18,0.508
2016-10-21 00:26:00,1656E-3,5C000000,-0724,0829,12098,027.8,045.4,0.454,743.7,01.18,0.508
2016-10-21 00:27:00,1499E-3,5C000000,-0724,0829,12148,027.8,045.5,0.454,743.7,01.18,0.508
2016-10-21 00:28:00,1616E-3,5C000000,-0724,0829,12271,027.8,045.5,0.455,743.7,01.18,0.508
2016-10-21 00:29:00,1647E-3,5C000000,-0724,0829,12137,027.8,045.5,0.454,743.7,01.18,0.508
2016-10-21 00:30:00,1693E-3,5C000000,-0724,0829,12271,027.8,045.5,0.454,743.8,01.18,0.508
2016-10-21 00:31:00,1574E-3,5C000000,-0724,0829,12322,027.8,045.5,0.454,743.8,01.18,0.508
2016-10-21 00:32:00,1653E-3,5C000000,-0724,0829,12283,027.8,045.4,0.454,743.7,01.18,0.508
2016-10-21 00:33:00,1473E-3,5C000000,-0724,0830,12199,027.8,045.5,0.455,743.7,01.18,0.508
2016-10-21 00:34:00,1610E-3,5C000000,-0724,0829,12051,027.8,045.5,0.454,743.8,01.18,0.508
2016-10-21 00:35:00,1725E-3,5C000000,-0724,0829,12297,027.8,045.4,0.454,743.8,01.18,0.508
2016-10-21 00:36:00,1610E-3,5C000000,-0724,0829,12222,027.8,045.4,0.454,743.8,01.18,0.508
2016-10-21 00:37:00,1549E-3,5C000000,-0724,0828,12175,027.8,045.4,0.454,743.8,01.18,0.508
2016-10-21 00:38:00,1495E-3,5C000000,-0724,0829,12247,027.8,045.4,0.455,743.7,01.18,0.508
2016-10-21 00:39:00,1596E-3,5C000000,-0724,0829,12161,027.8,045.4,0.454,743.7,01.18,0.508
2016-10-21 00:40:00,1629E-3,5C000000,-0724,0829,12135,027.8,045.4,0.455,743.7,01.18,0.508
2016-10-21 00:41:00,1540E-3,5C000000,-0724,0829,12225,027.8,045.5,0.454,743.8,01.18,0.508
2016-10-21 00:42:00,1407E-3,5C000000,-0724,0829,12260,027.8,045.5,0.454,743.7,01.18,0.508
2016-10-21 00:43:00,1665E-3,5C000000,-0724,0828,12163,027.8,045.5,0.455,743.7,01.18,0.508
2016-10-21 00:44:00,1565E-3,5C000000,-0724,0828,12135,027.8,045.5,0.454,743.7,01.18,0.508
2016-10-21 00:45:00,1717E-3,5C000000,-0724,0829,12326,027.8,045.5,0.455,743.8,01.18,0.508
2016-10-21 00:46:00,1500E-3,5C000000,-0724,0829,12196,027.8,045.5,0.454,743.8,01.18,0.508
2016-10-21 00:47:00,1553E-3,5C000000,-0724,0828,12132,027.8,045.5,0.454,743.8,01.18,0.508
2016-10-21 00:48:00,1657E-3,5C000000,-0724,0829,12180,027.8,045.5,0.455,743.9,01.18,0.508
2016-10-21 00:49:00,1633E-3,5C000000,-0724,0829,12118,027.8,045.5,0.454,743.9,01.18,0.508
2016-10-21 00:50:00,1581E-3,5C000000,-0724,0829,12314,027.8,045.4,0.455,743.9,01.18,0.508
2016-10-21 00:51:00,1482E-3,5C000000,-0724,0829,12218,027.8,045.5,0.454,743.9,01.18,0.508
2016-10-21 00:52:00,1607E-3,5C000000,-0724,0829,12160,027.8,045.4,0.454,743.9,01.18,0.508
2016-10-21 00:53:00,1492E-3,5C000000,-0724,0828,12219,027.8,045.5,0.455,743.9,01.18,0.508
2016-10-21 00:54:00,1583E-3,5C000000,-0724,0829,12232,027.8,045.4,0.454,743.9,01.18,0.508
2016-10-21 00:55:00,1574E-3,5C000000,-0724,0829,12224,027.8,045.5,0.454,743.9,01.18,0.508
2016-10-21 00:56:00,1655E-3,5C000000,-0724,0830,12298,027.8,045.4,0.454,743.9,01.18,0.508
2016-10-21 00:57:00,1570E-3,5C000000,-0724,0829,12261,027.8,045.5,0.454,743.9,01.18,0.508
2016-10-21 00:58:00,1582E-3,5C000000,-0724,0829,12153,027.8,045.4,0.455,743.8,01.18,0.508
2016-10-21 00:59:00,1536E-3,5C000000,-0724,0829,12156,027.8,045.4,0.454,743.9,01.18,0.508
2016-10-21 01:00:00,1603E-3,5C000000,-0724,0828,12228,027.8,045.5,0.454,743.9,01.18,0.508
2016-10-21 01:01:00,1596E-3,5C000000,-0724,0828,12251,027.8,045.5,0.454,743.9,01.18,0.508
2016-10-21 01:02:00,1629E-3,5C000000,-0724,0829,12164,027.8,045.4,0.454,743.9,01.18,0.508
2016-10-21 01:03:00,1633E-3,5C000000,-0724,0829,12157,027.8,045.4,0.455,743.8,01.18,0.508
2016-10-21 01:04:00,1646E-3,5C000000,-0724,0828,12274,027.8,045.5,0.454,743.8,01.18,0.508
2016-10-21 01:05:00,1648E-3,5C000000,-0724,0829,12141,027.8,045.4,0.454,743.8,01.18,0.508
2016-10-21 01:06:00,1558E-3,5C000000,-0724,0829,12161,027.8,045.5,0.455,743.8,01.18,0.508
2016-10-21 01:07:00,1564E-3,5C000000,-0724,0829,12235,027.8,045.5,0.454,743.8,01.18,0.508
2016-10-21 01:08:00,1534E-3,5C000000,-0724,0829,12328,027.9,045.5,0.454,743.9,01.18,0.508
2016-10-21 01:09:00,1588E-3,5C000000,-0724,0829,12353,027.9,045.5,0.454,743.8,01.18,0.508
2016-10-21 01:10:00,1610E-3,5C000000,-0724,0828,12201,027.9,045.4,0.454,743.8,01.18,0.508
2016-10-21 01:11:00,1571E-3,5C000000,-0724,0828,12132,027.9,045.4,0.455,743.8,01.18,0.508
2016-10-21 01:12:00,1522E-3,5C000000,-0724,0829,12065,027.8,045.5,0.454,743.9,01.18,0.508
2016-10-21 01:13:00,1602E-3,5C000000,-0724,0829,12180,027.9,045.5,0.454,743.9,01.18,0.508
2016-10-21 01:14:00,1615E-3,5C000000,-0724,0828,12089,027.9,045.5,0.455,743.9,01.18,0.508
2016-10-21 01:15:00,1446E-3,5C000000,-0724,0828,12067,027.9,045.5,0.454,743.9,01.18,0.508
2016-10-21 01:16:00,1397E-3,5C000000,-0724,0830,12221,027.9,045.5,0.454,743.9,01.18,0.508
2016-10-21 01:17:00,1555E-3,5C000000,-0724,0829,12118,027.9,045.4,0.454,743.9,01.18,0.508
2016-10-21 01:18:00,1418E-3,5C000000,-0724,0829,12146,027.9,045.4,0.454,743.8,01.18,0.508
2016-10-21 01:19:00,1518E-3,5C000000,-0724,0829,12269,027.9,045.4,0.455,743.9,01.18,0.508
2016-10-21 01:20:00,1692E-3,5C000000,-0724,0829,12205,027.9,045.4,0.454,743.8,01.18,0.508
2016-10-21 01:21:00,1646E-3,5C000000,-0724,0830,12280,027.9,045.5,0.454,743.8,01.18,0.508
2016-10-21 01:22:00,1646E-3,5C000000,-0724,0829,12095,027.9,045.4,0.454,743.9,01.18,0.508
2016-10-21 01:23:00,1518E-3,5C000000,-0724,0829,12254,027.9,045.4,0.454,743.9,01.18,0.508
2016-10-21 01:24:00,1619E-3,5C000000,-0724,0829,12189,027.9,045.5,0.455,743.9,01.18,0.508
2016-10-21 01:25:00,1532E-3,5C000000,-0724,0830,12293,027.9,045.5,0.454,743.8,01.18,0.508
2016-10-21 01:26:00,1630E-3,5C000000,-0724,0829,12266,027.9,045.5,0.454,743.8,01.18,0.508
2016-10-21 01:27:00,1642E-3,5C000000,-0724,0829,12144,027.9,045.4,0.455,743.8,01.18,0.508
2016-10-21 01:28:00,1524E-3,5C000000,-0724,0829,12122,027.9,045.4,0.454,743.8,01.18,0.508
2016-10-21 01:29:00,1583E-3,5C000000,-0724,0829,12159,027.9,045.4,0.455,743.8,01.18,0.508
2016-10-21 01:30:00,1557E-3,5C000000,-0724,0829,12146,027.9,045.4,0.454,743.8,01.18,0.508
2016-10-21 01:31:00,1435E-3,5C000000,-0724,0829,12091,027.9,045.4,0.454,743.8,01.18,0.508
2016-10-21 01:32:00,1587E-3,5C000000,-0724,0829,12062,027.9,045.5,0.455,743.8,01.18,0.508
2016-10-21 01:33:00,1490E-3,5C000000,-0724,0829,12158,027.9,045.5,0.454,743.8,01.18,0.508
2016-10-21 01:34:00,1537E-3,5C000000,-0724,0830,12266,027.9,045.5,0.454,743.8,01.18,0.508
2016-10-21 01:35:00,1545E-3,5C000000,-0724,0829,12287,027.9,045.5,0.454,743.7,01.18,0.508
2016-10-21 01:36:00,1441E-3,5C000000,-0724,0829,12359,027.9,045.4,0.454,743.7,01.18,0.508
2016-10-21 01:37:00,1520E-3,5C000000,-0724,0828,12012,027.9,045.4,0.454,743.6,01.18,0.508
2016-10-21 01:38:00,1533E-3,5C000000,-0724,0829,12216,027.9,045.4,0.454,743.6,01.18,0.508
2016-10-21 01:39:00,1519E-3,5C000000,-0724,0829,12301,027.9,045.5,0.454,743.7,01.18,0.508
2016-10-21 01:40:00,1731E-3,5C000000,-0724,0829,12270,027.9,045.5,0.454,743.6,01.18,0.508
2016-10-21 01:41:00,1556E-3,5C000000,-0724,0829,12148,028.0,045.5,0.454,743.7,01.18,0.508
2016-10-21 01:42:00,1573E-3,5C000000,-0724,0829,12338,027.9,045.4,0.454,743.6,01.18,0.508
2016-10-21 01:43:00,1613E-3,5C000000,-0724,0829,12287,028.0,045.4,0.454,743.6,01.18,0.508
2016-10-21 01:44:00,1523E-3,5C000000,-0724,0830,12261,027.9,045.4,0.454,743.6,01.18,0.508
2016-10-21 01:45:00,1621E-3,5C000000,-0724,0828,12185,028.0,045.4,0.454,743.7,01.18,0.508
2016-10-21 01:46:00,1574E-3,5C000000,-0724,0830,12181,028.0,045.4,0.454,743.6,01.18,0.508
2016-10-21 01:47:00,1577E-3,5C000000,-0724,0829,12351,028.0,045.5,0.454,743.6,01.18,0.508
2016-10-21 01:48:00,1647E-3,5C000000,-0724,0829,12161,028.0,045.4,0.454,743.7,01.18,0.508
2016-10-21 01:49:00,1564E-3,5C000000,-0724,0828,12223,028.0,045.5,0.454,743.6,01.18,0.508
2016-10-21 01:50:00,1529E-3,5C000000,-0724,0829,12253,028.0,045.5,0.454,743.7,01.18,0.508
2016-10-21 01:51:00,1646E-3,5C000000,-0724,0828,12185,028.0,045.5,0.454,743.7,01.18,0.508
2016-10-21 01:52:00,1500E-3,5C000000,-0724,0829,12189,028.0,045.5,0.454,743.8,01.18,0.508
2016-10-21 01:53:00,1471E-3,5C000000,-0724,0829,12108,028.0,045.5,0.454,743.7,01.18,0.508
2016-10-21 01:54:00,1586E-3,5C000000,-0724,0829,12208,028.0,045.5,0.454,743.6,01.18,0.508
2016-10-21 01:55:00,1548E-3,5C000000,-0724,0830,12181,028.0,045.5,0.454,743.7,01.18,0.508
2016-10-21 01:56:00,1542E-3,5C000000,-0724,0829,12224,028.0,045.5,0.454,743.8,01.18,0.508
2016-10-21 01:57:00,1578E-3,5C000000,-0724,0830,12211,028.0,045.5,0.454,743.8,01.18,0.508
2016-10-21 01:58:00,1599E-3,5C000000,-0724,0829,12174,028.0,045.5,0.454,743.7,01.18,0.508
2016-10-21 01:59:00,1397E-3,5C000000,-0724,0829,12075,028.0,045.5,0.454,743.7,01.18,0.508
2016-10-21 02:00:00,1498E-3,5C000000,-0724,0829,12153,028.0,045.5,0.454,743.7,01.18,0.508
2016-10-21 02:01:00,1465E-3,5C000000,-0724,0829,12096,028.0,045.5,0.454,743.7,01.18,0.508
2016-10-21 02:02:00,1488E-3,5C000000,-0724,0829,12263,028.0,045.4,0.454,743.7,01.18,0.508
2016-10-21 02:03:00,1651E-3,5C000000,-0724,0829,12221,028.0,045.5,0.454,743.7,01.18,0.508
2016-10-21 02:04:00,1408E-3,5C000000,-0724,0829,12180,028.0,045.5,0.454,743.7,01.18,0.508
2016-10-21 02:05:00,1536E-3,5C000000,-0724,0829,12197,028.0,045.5,0.454,743.7,01.18,0.508
2016-10-21 02:06:00,1452E-3,5C000000,-0724,0829,12197,028.0,045.5,0.454,743.7,01.18,0.508
2016-10-21 02:07:00,1497E-3,5C000000,-0724,0829,12185,028.0,045.5,0.454,743.7,01.18,0.508
2016-10-21 02:08:00,1454E-3,5C000000,-0724,0829,12061,028.0,045.4,0.454,743.7,01.18,0.508
2016-10-21 02:09:00,1571E-3,5C000000,-0724,0829,12243,028.0,045.4,0.454,743.7,01.18,0.508
2016-10-21 02:10:00,1589E-3,5C000000,-0724,0829,12180,028.0,045.5,0.454,743.8,01.18,0.508
2016-10-21 02:11:00,1548E-3,5C000000,-0724,0829,12242,028.0,045.5,0.454,743.8,01.18,0.508
2016-10-21 02:12:00,1584E-3,5C000000,-0724,0829,12210,028.0,045.4,0.454,743.8,01.18,0.508
2016-10-21 02:13:00,1545E-3,5C000000,-0724,0829,12031,028.0,045.5,0.454,743.8,01.18,0.508
2016-10-21 02:14:00,1580E-3,5C000000,-0724,0830,12254,028.1,045.4,0.454,743.7,01.18,0.508
2016-10-21 02:15:00,1702E-3,5C000000,-0724,0829,12210,028.1,045.4,0.454,743.7,01.18,0.508
2016-10-21 02:16:00,1602E-3,5C000000,-0724,0829,12095,028.0,045.4,0.454,743.7,01.18,0.508
2016-10-21 02:17:00,1566E-3,5C000000,-0724,0829,12193,028.1,045.4,0.454,743.7,01.18,0.508
2016-10-21 02:18:00,1560E-3,5C000000,-0724,0829,12073,028.0,045.5,0.454,743.7,01.18,0.508
2016-10-21 02:19:00,1624E-3,5C000000,-0724,0829,12238,028.0,045.5,0.454,743.7,01.18,0.508
2016-10-21 02:20:00,1660E-3,5C000000,-0724,0829,12155,028.1,045.4,0.454,743.7,01.18,0.508
2016-10-21 02:21:00,1488E-3,5C000000,-0724,0828,12220,028.1,045.5,0.454,743.7,01.18,0.508
2016-10-21 02:22:00,1550E-3,5C000000,-0724,0829,12316,028.0,045.5,0.454,743.7,01.18,0.508
2016-10-21 02:23:00,1695E-3,5C000000,-0724,0829,12219,028.1,045.4,0.454,743.7,01.18,0.508
2016-10-21 02:24:00,1574E-3,5C000000,-0724,0828,12171,028.1,045.4,0.454,743.7,01.18,0.508
2016-10-21 02:25:00,1553E-3,5C000000,-0724,0829,12242,028.1,045.4,0.454,743.7,01.18,0.508
2016-10-21 02:26:00,1531E-3,5C000000,-0724,0829,12240,028.1,045.4,0.454,743.6,01.18,0.508
2016-10-21 02:27:00,1525E-3,5C000000,-0724,0829,12277,028.1,045.4,0.454,743.6,01.18,0.508
2016-10-21 02:28:00,1571E-3,5C000000,-0724,0829,12219,028.1,045.4,0.454,743.6,01.18,0.508
2016-10-21 02:29:00,1508E-3,5C000000,-0724,0828,12212,028.1,045.4,0.454,743.7,01.18,0.508
2016-10-21 02:30:00,1595E-3,5C000000,-0724,0830,12176,028.1,045.4,0.454,743.6,01.18,0.508
2016-10-21 02:31:00,1444E-3,5C000000,-0724,0830,12212,028.1,045.5,0.454,743.6,01.18,0.508
2016-10-21 02:32:00,1503E-3,5C000000,-0724,0829,12188,028.1,045.5,0.454,743.6,01.18,0.508
2016-10-21 02:33:00,1521E-3,5C000000,-0724,0828,12065,028.1,045.5,0.454,743.6,01.18,0.508
2016-10-21 02:34:00,1530E-3,5C000000,-0724,0829,12130,028.1,045.5,0.454,743.6,01.18,0.508
2016-10-21 02:35:00,1523E-3,5C000000,-0724,0830,12159,028.1,045.5,0.454,743.6,01.18,0.508
2016-10-21 02:36:00,1572E-3,5C000000,-0724,0828,12162,028.1,045.5,0.454,743.6,01.18,0.508
2016-10-21 02:37:00,1460E-3,5C000000,-0724,0829,12182,028.1,045.5,0.454,743.6,01.18,0.508
2016-10-21 02:38:00,1531E-3,5C000000,-0724,0829,12197,028.1,045.5,0.454,743.6,01.18,0.508
2016-10-21 02:39:00,1505E-3,5C000000,-0724,0829,12183,028.1,045.5,0.454,743.5,01.18,0.508
2016-10-21 02:40:00,1418E-3,5C000000,-0724,0830,12269,028.1,045.4,0.454,743.5,01.18,0.508
2016-10-21 02:41:00,1566E-3,5C000000,-0724,0829,12107,028.1,045.5,0.454,743.5,01.18,0.508
2016-10-21 02:42:00,1476E-3,5C000000,-0724,0829,12254,028.1,045.4,0.454,743.5,01.18,0.508
2016-10-21 02:43:00,1500E-3,5C000000,-0724,0830,12124,028.1,045.5,0.454,743.5,01.18,0.508
2016-10-21 02:44:00,1510E-3,5C000000,-0724,0830,12263,028.1,045.5,0.454,743.5,01.18,0.508
2016-10-21 02:45:00,1502E-3,5C000000,-0724,0830,12205,028.1,045.5,0.454,743.5,01.18,0.508
2016-10-21 02:46:00,1619E-3,5C000000,-0724,0829,12277,028.1,045.5,0.453,743.5,01.18,0.508
2016-10-21 02:47:00,1533E-3,5C000000,-0724,0830,12178,028.1,045.5,0.454,743.5,01.18,0.508
2016-10-21 02:48:00,1516E-3,5C000000,-0724,0829,12249,028.1,045.5,0.454,743.6,01.18,0.508
2016-10-21 02:49:00,1541E-3,5C000000,-0724,0829,12249,028.1,045.5,0.454,743.6,01.18,0.508
2016-10-21 02:50:00,1683E-3,5C000000,-0724,0829,12064,028.1,045.5,0.454,743.6,01.18,0.508
2016-10-21 02:51:00,1630E-3,5C000000,-0724,0828,12168,028.1,045.5,0.453,743.6,01.18,0.508
2016-10-21 02:52:00,1536E-3,5C000000,-0724,0828,12048,028.1,045.5,0.454,743.5,01.18,0.508
2016-10-21 02:53:00,1510E-3,5C000000,-0724,0829,12093,028.1,045.4,0.454,743.6,01.18,0.508
2016-10-21 02:54:00,1517E-3,5C000000,-0724,0829,12098,028.1,045.5,0.454,743.5,01.18,0.508
2016-10-21 02:55:00,1572E-3,5C000000,-0724,0828,12282,028.2,045.5,0.454,743.5,01.18,0.508
2016-10-21 02:56:00,1491E-3,5C000000,-0724,0829,12204,028.2,045.5,0.453,743.4,01.18,0.508
2016-10-21 02:57:00,1466E-3,5C000000,-0724,0829,12236,028.2,045.5,0.454,743.4,01.18,0.508
2016-10-21 02:58:00,1507E-3,5C000000,-0724,0829,12325,028.2,045.5,0.454,743.4,01.18,0.508
2016-10-21 02:59:00,1465E-3,5C000000,-0724,0829,12188,028.2,045.5,0.454,743.4,01.18,0.508
2016-10-21 03:00:00,1400E-3,5C000000,-0724,0829,12280,028.2,045.5,0.454,743.5,01.18,0.508
2016-10-21 03:01:00,1587E-3,5C000000,-0724,0830,12228,028.2,045.4,0.453,743.4,01.18,0.508
2016-10-21 03:02:00,1560E-3,5C000000,-0724,0829,12163,028.2,045.5,0.454,743.4,01.18,0.508
2016-10-21 03:03:00,1555E-3,5C000000,-0724,0829,12311,028.2,045.5,0.454,743.4,01.18,0.508
2016-10-21 03:04:00,1499E-3,5C000000,-0724,0828,12185,028.2,045.4,0.454,743.3,01.18,0.508
2016-10-21 03:05:00,1600E-3,5C000000,-0724,0829,12233,028.2,045.4,0.454,743.3,01.18,0.508
2016-10-21 03:06:00,1536E-3,5C000000,-0724,0829,12172,028.2,045.5,0.453,743.3,01.18,0.508
2016-10-21 03:07:00,1608E-3,5C000000,-0724,0828,12150,028.2,045.5,0.454,743.3,01.18,0.508
2016-10-21 03:08:00,1520E-3,5C000000,-0724,0828,12329,028.2,045.4,0.453,743.2,01.18,0.508
2016-10-21 03:09:00,1405E-3,5C000000,-0724,0829,12244,028.2,045.5,0.454,743.3,01.18,0.508
2016-10-21 03:10:00,1419E-3,5C000000,-0724,0828,12188,028.2,045.5,0.454,743.2,01.18,0.508
2016-10-21 03:11:00,1531E-3,5C000000,-0724,0829,12294,028.2,045.5,0.454,743.2,01.18,0.508
2016-10-21 03:12:00,1603E-3,5C000000,-0724,0829,12214,028.2,045.5,0.454,743.3,01.18,0.508
2016-10-21 03:13:00,1525E-3,5C000000,-0724,0830,12273,028.2,045.5,0.453,743.3,01.18,0.508
2016-10-21 03:14:00,1473E-3,5C000000,-0724,0828,12241,028.2,045.5,0.454,743.3,01.18,0.508
2016-10-21 03:15:00,1540E-3,5C000000,-0724,0829,12349,028.2,045.5,0.454,743.2,01.18,0.508
2016-10-21 03:16:00,1709E-3,5C000000,-0724,0829,12305,028.2,045.5,0.453,743.3,01.18,0.508
2016-10-21 03:17:00,1517E-3,5C000000,-0724,0830,12272,028.2,045.5,0.454,743.2,01.18,0.508
2016-10-21 03:18:00,1620E-3,5C000000,-0724,0828,12101,028.2,045.5,0.453,743.2,01.18,0.508
2016-10-21 03:19:00,1474E-3,5C000000,-0724,0829,12227,028.2,045.5,0.454,743.2,01.18,0.508
2016-10-21 03:20:00,1572E-3,5C000000,-0724,0829,12222,028.2,045.5,0.454,743.2,01.18,0.508
2016-10-21 03:21:00,1507E-3,5C000000,-0724,0828,12105,028.2,045.5,0.453,743.2,01.18,0.508
2016-10-21 03:22:00,1434E-3,5C000000,-0724,0829,12181,028.2,045.5,0.454,743.2,01.18,0.508
2016-10-21 03:23:00,1576E-3,5C000000,-0724,0829,12081,028.2,045.5,0.453,743.2,01.18,0.508
2016-10-21 03:24:00,1586E-3,5C000000,-0724,0829,12260,028.2,045.5,0.454,743.2,01.18,0.508
2016-10-21 03:25:00,1523E-3,5C000000,-0724,0829,12181,028.2,045.5,0.454,743.2,01.18,0.508
2016-10-21 03:26:00,1469E-3,5C000000,-0724,0829,12250,028.2,045.5,0.453,743.2,01.18,0.508
2016-10-21 03:27:00,1640E-3,5C000000,-0724,0828,12212,028.2,045.5,0.454,743.3,01.18,0.508
2016-10-21 03:28:00,1483E-3,5C000000,-0724,0829,12129,028.2,045.5,0.453,743.2,01.18,0.508
2016-10-21 03:29:00,1575E-3,5C000000,-0724,0830,12081,028.2,045.5,0.454,743.2,01.18,0.508
2016-10-21 03:30:00,1547E-3,5C000000,-0724,0829,12151,028.2,045.5,0.454,743.3,01.18,0.508
2016-10-21 03:31:00,1529E-3,5C000000,-0724,0829,12071,028.2,045.5,0.453,743.2,01.18,0.508
2016-10-21 03:32:00,1496E-3,5C000000,-0724,0829,12148,028.2,045.5,0.454,743.3,01.18,0.508
2016-10-21 03:33:00,1629E-3,5C000000,-0724,0829,12008,028.2,045.5,0.453,743.3,01.18,0.508
2016-10-21 03:34:00,1596E-3,5C000000,-0724,0829,12126,028.2,045.5,0.454,743.2,01.18,0.508
2016-10-21 03:35:00,1586E-3,5C000000,-0724,0829,12149,028.2,045.5,0.454,743.2,01.18,0.508
2016-10-21 03:36:00,1613E-3,5C000000,-0724,0829,12226,028.2,045.5,0.453,743.3,01.18,0.508
2016-10-21 03:37:00,1558E-3,5C000000,-0724,0829,12161,028.2,045.5,0.454,743.3,01.18,0.508
2016-10-21 03:38:00,1553E-3,5C000000,-0724,0828,12368,028.2,045.5,0.453,743.3,01.18,0.508
2016-10-21 03:39:00,1641E-3,5C000000,-0724,0829,12166,028.2,045.5,0.454,743.2,01.18,0.508
2016-10-21 03:40:00,1610E-3,5C000000,-0724,0829,12055,028.2,045.5,0.454,743.2,01.18,0.508
2016-10-21 03:41:00,1465E-3,5C000000,-0724,0828,12239,028.2,045.5,0.453,743.3,01.18,0.508
2016-10-21 03:42:00,1560E-3,5C000000,-0724,0829,12242,028.2,045.5,0.454,743.2,01.18,0.508
2016-10-21 03:43:00,1608E-3,5C000000,-0724,0829,12216,028.2,045.5,0.454,743.3,01.18,0.508
2016-10-21 03:44:00,1609E-3,5C000000,-0724,0829,12127,028.2,045.5,0.453,743.2,01.18,0.508
2016-10-21 03:45:00,1605E-3,5C000000,-0724,0829,12320,028.2,045.5,0.454,743.2,01.18,0.508
2016-10-21 03:46:00,1564E-3,5C000000,-0724,0829,12257,028.2,045.5,0.453,743.2,01.18,0.508
2016-10-21 03:47:00,1616E-3,5C000000,-0724,0829,12034,028.2,045.5,0.454,743.2,01.18,0.508
2016-10-21 03:48:00,1565E-3,5C000000,-0724,0829,12233,028.2,045.5,0.454,743.2,01.18,0.508
2016-10-21 03:49:00,1515E-3,5C000000,-0724,0828,12212,028.2,045.5,0.453,743.3,01.18,0.508
2016-10-21 03:50:00,1588E-3,5C000000,-0724,0829,12201,028.2,045.5,0.454,743.2,01.18,0.508
2016-10-21 03:51:00,1593E-3,5C000000,-0724,0829,12060,028.2,045.5,0.453,743.2,01.18,0.508
2016-10-21 03:52:00,1580E-3,5C000000,-0724,0829,12211,028.2,045.5,0.453,743.2,01.18,0.508
2016-10-21 03:53:00,1536E-3,5C000000,-0724,0829,12264,028.2,045.5,0.454,743.2,01.18,0.508
2016-10-21 03:54:00,1657E-3,5C000000,-0724,0828,12202,028.2,045.5,0.453,743.1,01.18,0.508
2016-10-21 03:55:00,1608E-3,5C000000,-0724,0829,12289,028.2,045.4,0.454,743.2,01.18,0.508
2016-10-21 03:56:00,1549E-3,5C000000,-0724,0829,12310,028.2,045.4,0.454,743.2,01.18,0.508
2016-10-21 03:57:00,1587E-3,5C000000,-0724,0829,12319,028.2,045.5,0.453,743.2,01.18,0.508
2016-10-21 03:58:00,1536E-3,5C000000,-0724,0829,12008,028.2,045.5,0.454,743.2,01.18,0.508
2016-10-21 03:59:00,1520E-3,5C000000,-0724,0829,12235,028.2,045.5,0.454,743.2,01.18,0.508
2016-10-21 04:00:00,1581E-3,5C000000,-0724,0829,12352,028.2,045.5,0.453,743.2,01.18,0.508
2016-10-21 04:01:00,1575E-3,5C000000,-0724,0829,12242,028.2,045.5,0.454,743.2,01.18,0.508
2016-10-21 04:02:00,1535E-3,5C000000,-0724,0830,12186,028.2,045.4,0.453,743.2,01.18,0.508
2016-10-21 04:03:00,1692E-3,5C000000,-0724,0829,12104,028.2,045.5,0.454,743.2,01.18,0.508
2016-10-21 04:04:00,1493E-3,5C000000,-0724,0829,12173,028.2,045.5,0.454,743.2,01.18,0.508
2016-10-21 04:05:00,1469E-3,5C000000,-0724,0829,12208,028.2,045.5,0.453,743.2,01.18,0.508
2016-10-21 04:06:00,1489E-3,5C000000,-0724,0829,12312,028.2,045.5,0.454,743.2,01.18,0.508
2016-10-21 04:07:00,1483E-3,5C000000,-0724,0829,12230,028.2,045.5,0.454,743.2,01.18,0.508
2016-10-21 04:08:00,1566E-3,5C000000,-0724,0828,12183,028.2,045.5,0.453,743.2,01.18,0.508
2016-10-21 04:09:00,1548E-3,5C000000,-0724,0830,12183,028.2,045.5,0.454,743.2,01.18,0.508
2016-10-21 04:10:00,1544E-3,5C000000,-0724,0828,12151,028.2,045.5,0.454,743.2,01.18,0.508
2016-10-21 04:11:00,1575E-3,5C000000,-0724,0829,12245,028.2,045.5,0.453,743.2,01.18,0.508
2016-10-21 04:12:00,1618E-3,5C000000,-0724,0829,11110,028.2,045.5,0.454,743.2,01.18,0.508
2016-10-21 04:13:00,1578E-3,5C000000,-0724,0828,12077,028.2,045.5,0.454,743.2,01.18,0.508
2016-10-21 04:14:00,1566E-3,5C000000,-0724,0829,12012,028.2,045.5,0.453,743.2,01.18,0.508
2016-10-21 04:15:00,1600E-3,5C000000,-0724,0829,12047,028.2,045.5,0.454,743.2,01.18,0.508
2016-10-21 04:16:00,1600E-3,5C000000,-0724,0829,12094,028.2,045.5,0.453,743.3,01.18,0.508
2016-10-21 04:17:00,1605E-3,5C000000,-0724,0829,12201,028.2,045.5,0.454,743.3,01.18,0.508
2016-10-21 04:18:00,1501E-3,5C000000,-0724,0829,12071,028.2,045.5,0.454,743.2,01.18,0.508
2016-10-21 04:19:00,1525E-3,5C000000,-0724,0828,12133,028.2,045.5,0.453,743.2,01.18,0.508
2016-10-21 04:20:00,1650E-3,5C000000,-0724,0828,12191,028.2,045.5,0.454,743.2,01.18,0.508